Regional Weather Roundup
Issued by NWS

Home | Current Version | Previous Version | Text Only | Print | Product List | Glossary Off
Versions: 1 2 3 4 5 6 7 8 9 10 11 12 13 14 15 16 17 18 19 20 21 22 23 24 25 26 27

000
ASUS45 KPSR 261810
RWRAZ

ARIZONA HOURLY REGIONAL WEATHER ROUNDUP
NATIONAL WEATHER SERVICE PHOENIX AZ
1100 AM MST SUN FEB 26 2017

NOTE: FAIR INDICATES FEW OR NO CLOUDS BELOW 12,000 FEET WITH NO
SIGNIFICANT WEATHER AND/OR OBSTRUCTIONS TO VISIBILITY.

AZZ001>003-036-261900-
NORTHWEST ARIZONA

CITY           SKY/WX    TMP DP  RH WIND       PRES   REMARKS
BULLHEAD CITY  PTSUNNY   57  27  30 CALM      29.95F
KINGMAN        MOSUNNY   52  12  20 SW21      29.92S
6HR MIN TEMP:  34; 6HR MAX TEMP:  52;

$$

AZZ004>008-015-016-018-261900-
NORTH CENTRAL ARIZONA

CITY           SKY/WX    TMP DP  RH WIND       PRES   REMARKS
GRAND CANYON   CLOUDY    34  19  54 S8        29.94S WCI  27
6HR MIN TEMP:  27; 6HR MAX TEMP:  35;

WILLIAMS       CLOUDY    41  12  30 SW10G16   29.93S
PRESCOTT       CLOUDY    40  23  50 W5        29.97R
6HR MIN TEMP:  34; 6HR MAX TEMP:  43;

FLAGSTAFF      CLOUDY    34  16  47 SW12      29.93S WCI  25
6HR MIN TEMP:  25; 6HR MAX TEMP:  34;

PAYSON         CLOUDY    45  16  31 CALM      29.99R
PAGE           SUNNY     42  15  33 NW5       29.95S
6HR MIN TEMP:  31; 6HR MAX TEMP:  43;

$$

AZZ009>014-017-261900-
NORTHEAST ARIZONA

CITY           SKY/WX    TMP DP  RH WIND       PRES   REMARKS
WINSLOW        PTSUNNY   45  20  36 VRB5      29.96S
6HR MIN TEMP:  36; 6HR MAX TEMP:  47;

SAINT JOHNS    CLOUDY    41  20  43 CALM      29.93F
6HR MIN TEMP:  31; 6HR MAX TEMP:  44;

WINDOW ROCK    CLOUDY    35  20  54 W8        29.95R WCI  29
6HR MIN TEMP:  26; 6HR MAX TEMP:  35; 6HR PCP: TRACE;

SHOW LOW       PTSUNNY   41   7  24 SW12G17   29.95S
$$

AZZ023-261900-
GREATER PHOENIX AREA

CITY           SKY/WX    TMP DP  RH WIND       PRES   REMARKS
PHOENIX        PTSUNNY   61  28  28 CALM      29.92R
6HR MIN TEMP:  52; 6HR MAX TEMP:  62;

BUCKEYE        CLOUDY    59  34  38 S3        29.96R
GLENDALE       PTSUNNY   61  32  33 CALM      29.95R
LUKE AFB       CLOUDY    61  31  32 NW5       29.93R
6HR MIN TEMP:  49; 6HR MAX TEMP:  61;

DEER VALLEY    CLOUDY    60  26  27 SW6       29.93R
6HR MIN TEMP:  50; 6HR MAX TEMP:  60;

SCOTTSDALE     PTSUNNY   61  25  25 VRB3      29.94R
6HR MIN TEMP:  50; 6HR MAX TEMP:  61;

MESA-FALCON    PTSUNNY  N/A N/A N/A SW6       29.91R
MESA-GATEWAY   PTSUNNY   61  30  31 CALM      29.95R
CHANDLER       SUNNY     61  30  31 VRB5      29.93S
$$

AZZ027-028-261900-
SOUTHWEST MARICOPA COUNTY AND PINAL COUNTY

CITY           SKY/WX    TMP DP  RH WIND       PRES   REMARKS
CASA GRANDE    NOT AVBL
$$

AZZ503-504-507>509-261900-
SOUTHEAST ARIZONA

CITY           SKY/WX    TMP DP  RH WIND       PRES   REMARKS
TUCSON         CLOUDY    64  10  12 W7        29.96R
6HR MIN TEMP:  50; 6HR MAX TEMP:  64;

DAVIS-MONTHAN  PTSUNNY   62  13  14 NW10      29.94R
6HR MIN TEMP:  51; 6HR MAX TEMP:  62;

RYAN FIELD     MOSUNNY   63  14  15 SW14G24   29.96R
NOGALES        CLOUDY    58   6  12 SW15G21   29.98R
6HR MIN TEMP:  45; 6HR MAX TEMP:  59;

SIERRA VISTA   PTSUNNY   61   3  10 W17G30    29.97R
6HR MIN TEMP:  44; 6HR MAX TEMP:  61;

DOUGLAS        CLOUDY    58  16  19 W8        29.96F
6HR MIN TEMP:  41; 6HR MAX TEMP:  58;

SAFFORD        PTSUNNY   59  14  17 VRB5      29.92S
6HR MIN TEMP:  40; 6HR MAX TEMP:  59; 6HR PCP: TRACE;

$$

AZZ020-021-025-026-031-261900-
SOUTHWEST ARIZONA

CITY           SKY/WX    TMP DP  RH WIND       PRES   REMARKS
YUMA           MOSUNNY   63  37  38 NW17      29.96S
6HR MIN TEMP:  53; 6HR MAX TEMP:  63;

$$

CAZ031-033-041-043-047-048-061-261900-
SOUTHERN CALIFORNIA

CITY           SKY/WX    TMP DP  RH WIND       PRES   REMARKS
DOWNTOWN L.A.  CLOUDY    55  44  66 VRB5      30.02R
6HR MIN TEMP:  49; 6HR MAX TEMP:  55; 6HR PCP:  0.05;

L.A. AIRPORT   LGT RAIN  52  45  77 E7        30.02R
6HR MIN TEMP:  48; 6HR MAX TEMP:  53; 6HR PCP:  0.05;

SAN DIEGO      PTSUNNY   55  47  74 S6        30.06S
6HR MIN TEMP:  52; 6HR MAX TEMP:  55; 6HR PCP:  0.04;

BURBANK        CLOUDY    50  42  74 MISG      30.01R
6HR MIN TEMP:  45; 6HR MAX TEMP:  50; 6HR PCP:  0.07;

ONTARIO        CLOUDY    50  42  74 NE3       30.01S
6HR MIN TEMP:  45; 6HR MAX TEMP:  51; 6HR PCP:  0.12;

RIVERSIDE      CLOUDY    51  45  79 VRB3      30.02R
6HR MIN TEMP:  46; 6HR MAX TEMP:  52; 6HR PCP:  0.09;

PALM SPRINGS   SUNNY     61  43  51 E5        29.96F
6HR MIN TEMP:  51; 6HR MAX TEMP:  61; 6HR PCP: TRACE;

EL CENTRO NAS  SUNNY     64  36  35 W13       29.99S
6HR MIN TEMP:  53; 6HR MAX TEMP:  64; 6HR PCP: TRACE;

IMPERIAL         N/A    N/A N/A N/A MISG      29.96F
BLYTHE         SUNNY     62  33  33 CALM      29.95R
6HR MIN TEMP:  48; 6HR MAX TEMP:  62;

NEEDLES        CLOUDY    56  30  37 CALM      29.96S
6HR MIN TEMP:  51; 6HR MAX TEMP:  57; 6HR PCP: TRACE;

$$

NVZ020-UTZ003-261900-
SOUTHERN NEVADA-UTAH

CITY           SKY/WX    TMP DP  RH WIND       PRES   REMARKS
LAS VEGAS      MOSUNNY   51  18  27 CALM      29.92S
6HR MIN TEMP:  39; 6HR MAX TEMP:  51;

SALT LAKE CITY PTSUNNY   32  16  51 S17       29.93S WCI  21
6HR MIN TEMP:  22; 6HR MAX TEMP:  32;

$$

NMZ009-TXZ055-261900-
NEW MEXICO-WEST TEXAS

CITY           SKY/WX    TMP DP  RH WIND       PRES   REMARKS
ALBUQUERQUE    PTSUNNY   41  19  41 W5        29.97F
6HR MIN TEMP:  34; 6HR MAX TEMP:  41;

EL PASO        PTSUNNY   61   7  11 SW13      29.95F
6HR MIN TEMP:  42; 6HR MAX TEMP:  61;

$$


........................KEY........................
SKY/WX - SKY CONDITION/WEATHER
TMP    - TEMPERATURE IN FAHRENHEIT
DP     - DEW POINT IN FAHRENHEIT
RH     - RELATIVE HUMIDITY IN PERCENT
WIND   - DIRECTION AND SPEED IN MILES PER HOUR (MPH)
VRB    - VARIABLE WIND DIRECTION
PRES   - MEAN SEA LEVEL PRESSURE IN INCHES OF MERCURY
         F - FALLING PRESSURE   R - RISING PRESSURE
         S - STEADY PRESSURE
VSB    - VISIBILITY IN MILES
HX     - HEAT INDEX IN FAHRENHEIT
WCI    - WIND CHILL INDEX IN FAHRENHEIT
TC     - TEMPERATURE IN CELSIUS WHICH IS ALSO KNOWN AS
         TEMPERATURE IN CENTIGRADE
AFB    - AIR FORCE BASE
         LUKE AFB IS LUKE AIR FORCE BASE
         DAVIS-MONTHAN IS DAVIS-MONTHAN AIR FORCE BASE
NAS    - NAVAL AIR STATION
         EL CENTRO NAS IS EL CENTRO NAVAL AIR STATION
N/A    - NOT AVAILABLE





USA.gov is the U.S. government's official web portal to all federal, state and local government web resources and services.